Regional Weather Roundup
Issued by NWS

Home | Current Version | Previous Version | Text Only | Print | Product List | Glossary On
Versions: 1 2 3 4 5 6 7 8 9 10 11 12 13 14 15 16 17 18 19 20 21 22 23 24 25 26 27 28 29 30 31 32 33 34 35 36 37 38 39 40 41 42 43 44 45 46 47 48 49 50
000
ASUS43 KTOP 241608
RWRKS

WEATHER ROUNDUP FOR KANSAS
NATIONAL WEATHER SERVICE GOODLAND KS
1000 AM CST SAT JAN 24 2015

NOTE:  "FAIR" INDICATES FEW OR NO CLOUDS BELOW 12,000 FEET WITH NO
SIGNIFICANT WEATHER AND/OR OBSTRUCTIONS TO VISIBILITY.

KSZ001>006-013>018-027>032-041>047-241700-
NORTHWEST KANSAS

CITY           SKY/WX    TMP DP  RH WIND       PRES   REMARKS
GOODLAND       SUNNY     41  27  57 W10       30.04F
HAYS           SUNNY     41  23  48 W12       30.05S
HILL CITY      SUNNY     42  27  55 W12       30.03F
RUSSELL        SUNNY     40  29  64 W14       30.02F WCI  32
$$

KSZ061>065-074>080-084>089-241700-
SOUTHWEST KANSAS

CITY           SKY/WX    TMP DP  RH WIND       PRES   REMARKS
DODGE CITY     SUNNY     42  27  55 W9        30.10F
ELKHART          N/A    N/A N/A N/A MISG        N/A
GARDEN CITY    SUNNY     39  28  64 W8        30.10S
GREAT BEND     SUNNY     43  28  56 W15       30.07F
LIBERAL        SUNNY     43  28  56 W10       30.14F
PRATT          SUNNY     43  30  61 NW13      30.09F
$$

KSZ066>073-081>083-090>101-241700-
SOUTHEAST KANSAS

CITY           SKY/WX    TMP DP  RH WIND       PRES   REMARKS
CHANUTE        SUNNY     41  31  67 W8        30.04S
COFFEYVILLE    SUNNY     42  31  64 W5        30.06F
HUTCHINSON     SUNNY     42  29  59 W14       30.06F
MEDICINE LODGE   N/A     42  30  62 W8        30.09F
NEWTON         SUNNY     39  28  65 W9        30.05F
PARSONS        SUNNY     42  31  64 W7        30.06S
WICHITA INTL   MOSUNNY   46  29  51 NW7       30.06F
WICHITA JABRA  SUNNY     41  29  62 W10       30.05F
WICHITA MCCONL SUNNY     43  29  58 W6        30.07F
WINFIELD       SUNNY     42  30  62 NW7       30.09F
$$

KSZ007>012-019>026-033>040-048>060-102>105-241700-
NORTHEAST KANSAS

CITY           SKY/WX    TMP DP  RH WIND       PRES   REMARKS
CONCORDIA      SUNNY     40  30  67 W15       29.97F WCI  32
EMPORIA        SUNNY     42  30  62 W10       30.00F
LAWRENCE       SUNNY     37  29  72 W6        29.97F
MANHATTAN      SUNNY     37  29  72 SW9       29.99F
MARYSVILLE     SUNNY     41  32  70 W8        29.95R
OLATHE IND     SUNNY     41  30  65 W10       29.97F
OLATHE EXE     SUNNY     41  30  65 W6        29.95F
SALINA         SUNNY     43  29  57 W10       30.01F
TOPEKA BILLARD SUNNY     40  29  64 W9        29.97F
TOPEKA FORBES  SUNNY     44  30  57 W8        29.96F
$$


USA.gov is the U.S. government's official web portal to all federal, state and local government web resources and services.